{"data":{"norad_id":54372,"epoch":"2026-05-25T05:14:05.248320Z","epoch_age_seconds":56943,"freshness":"FRESH","line1":"1 54372U 22160A   26145.21811630  .00013467  00000+0  40224-3 0  9997","line2":"2 54372  34.9996 109.9483 0000496  96.3033 263.7741 15.33762050194680","mean_motion":15.3376205,"eccentricity":4.96e-5,"inclination_deg":34.9996,"raan_deg":109.9483,"arg_perigee_deg":96.3033,"mean_anomaly_deg":263.7741,"bstar":0.00040224,"rev_number":19468,"period_min":93.886792935058,"perigee_km":464.2606194868,"apogee_km":464.93941899911,"semimajor_km":6842.737019243,"source":"CELESTRAK","updated_at":"2026-05-25T13:37:58.667047Z"}}